N6OIM Weather Reports


Display with metric or nautical units.
time (UTC)temp
F
wind
direction
speed
MPH
gust
MPH
rain 1hr
in
rain 24hr
in
rain mn
in
humidity
%
barometer
mb
20260502170334 62 198 0.0 0.0 0.00 0.00 0.00 76 1011.1
20260502164333 61 244 0.0 0.0 0.00 0.00 0.00 76 1011.1
20260502163822 61 261 0.0 0.0 0.00 0.00 0.00 76 1011.1
20260502163329 61 153 0.0 0.0 0.00 0.00 0.00 76 1011.1
20260502162821 60 259 0.0 0.0 0.00 0.00 0.00 77 1011.0
20260502162329 60 142 0.0 0.0 0.00 0.00 0.00 77 1010.9
20260502161819 60 143 0.0 0.0 0.00 0.00 0.00 77 1010.9
20260502161332 60 142 0.0 0.0 0.00 0.00 0.00 78 1011.0
20260502160824 60 140 0.0 0.0 0.00 0.00 0.00 78 1011.0
20260502160331 59 140 0.0 0.0 0.00 0.00 0.00 79 1011.0
20260502152325 57 115 0.0 0.0 0.00 0.00 0.00 82 1010.7
20260502151814 57 112 0.0 0.0 0.00 0.00 0.00 82 1010.7
20260502151326 57 111 0.0 0.0 0.00 0.00 0.00 82 1010.6
20260502150834 56 115 0.0 0.0 0.00 0.00 0.00 83 1010.7
20260502150321 56 114 0.0 0.0 0.00 0.00 0.00 83 1010.7
20260502130328 55 113 0.0 0.0 0.00 0.00 0.00 82 1009.8
20260502123326 55 168 0.0 0.0 0.00 0.00 0.00 81 1009.4
20260502122834 55 168 0.0 0.0 0.00 0.00 0.00 80 1009.4
20260502122321 55 168 0.0 0.0 0.00 0.00 0.00 80 1009.5
20260502121831 55 168 0.0 0.0 0.00 0.00 0.00 80 1009.5
20260502121323 56 168 0.0 0.0 0.00 0.00 0.00 80 1009.5
20260502120836 56 168 0.0 0.0 0.00 0.00 0.00 80 1009.4
20260502120325 56 168 0.0 0.0 0.00 0.00 0.00 80 1009.3
20260502115836 56 168 0.0 0.0 0.00 0.00 0.00 79 1009.4
20260502115324 56 168 0.0 0.0 0.00 0.00 0.00 79 1009.5
20260502114817 56 168 0.0 0.0 0.00 0.00 0.00 79 1009.7
20260502114325 56 168 0.0 0.0 0.00 0.00 0.00 78 1009.8
20260502113814 56 168 0.0 0.0 0.00 0.00 0.00 79 1009.8
20260502113324 56 168 0.0 0.0 0.00 0.00 0.00 78 1009.8
20260502112833 56 168 0.0 0.0 0.00 0.00 0.00 78 1009.7
20260502112321 57 168 0.0 0.0 0.00 0.00 0.00 78 1009.7
20260502111831 57 168 0.0 0.0 0.00 0.00 0.00 78 1009.7
20260502111320 57 168 0.0 0.0 0.00 0.00 0.00 78 1009.7
20260502110830 57 168 0.0 0.0 0.00 0.00 0.00 78 1009.7
20260502110322 57 168 0.0 0.0 0.00 0.00 0.00 78 1009.8
20260502105830 57 168 0.0 0.0 0.00 0.00 0.00 78 1009.7
20260502105318 57 168 0.0 0.0 0.00 0.00 0.00 78 1009.8
20260502104828 57 168 0.0 0.0 0.00 0.00 0.00 78 1009.9
20260502104336 57 168 0.0 0.0 0.00 0.00 0.00 77 1009.8
20260502103826 58 168 0.0 0.0 0.00 0.00 0.00 77 1009.8
20260502103335 58 168 0.0 0.0 0.00 0.00 0.00 77 1009.8
20260502102823 58 168 0.0 0.0 0.00 0.00 0.00 77 1009.8
20260502101826 58 168 0.0 0.0 0.00 0.00 0.00 77 1009.7
20260502101314 58 168 0.0 0.0 0.00 0.00 0.00 77 1009.7
20260502100827 58 168 0.0 0.0 0.00 0.00 0.00 77 1009.8
20260502100316 58 168 0.0 0.0 0.00 0.00 0.00 77 1009.7
20260502091319 59 168 0.0 0.0 0.00 0.00 0.00 75 1009.8
20260502090827 59 168 0.0 0.0 0.00 0.00 0.00 75 1009.7
20260502090334 60 168 0.0 0.0 0.00 0.00 0.00 75 1009.7
20260502071327 62 150 0.0 0.0 0.00 0.00 0.00 73 1010.2
20260502070819 62 149 0.0 0.0 0.00 0.00 0.00 73 1010.2
20260502070326 63 144 0.0 0.0 0.00 0.00 0.00 73 1010.2
20260502065815 63 139 0.0 0.0 0.00 0.00 0.00 73 1010.2
20260502065326 63 140 0.0 0.0 0.00 0.00 0.00 73 1010.2
20260502064815 64 141 0.0 0.0 0.00 0.00 0.00 73 1010.2
20260502064329 64 140 0.0 0.0 0.00 0.00 0.00 73 1010.1
20260502063818 64 133 0.0 0.0 0.00 0.00 0.00 73 1010.1
20260502063327 64 129 0.0 0.0 0.00 0.00 0.00 73 1010.1
20260502062817 65 126 0.0 0.0 0.00 0.00 0.00 72 1010.1
20260502062325 65 123 0.0 0.0 0.00 0.00 0.00 72 1010.1
20260502061833 65 122 0.0 0.0 0.00 0.00 0.00 72 1010.0
20260502061320 66 152 0.0 0.0 0.00 0.00 0.00 71 1010.0
20260502060829 66 189 0.0 0.0 0.00 0.00 0.00 71 1010.0
20260502060318 66 189 0.0 0.0 0.00 0.00 0.00 71 1010.2
20260502055832 66 188 0.0 0.0 0.00 0.00 0.00 70 1010.1
20260502055320 67 189 0.0 0.0 0.00 0.00 0.00 70 1010.1
20260502054830 67 188 0.0 0.0 0.00 0.00 0.00 69 1010.1
20260502054317 67 189 0.0 0.0 0.00 0.00 0.00 69 1010.0
20260502053827 67 189 0.0 0.0 0.00 0.00 0.00 69 1010.1
20260502053316 68 189 0.0 0.0 0.00 0.00 0.00 68 1010.1
20260502052825 68 189 0.0 0.0 0.00 0.00 0.00 68 1010.1
20260502052332 68 188 0.0 0.0 0.00 0.00 0.00 68 1010.0
20260502051822 69 189 0.0 0.0 0.00 0.00 0.00 67 1010.0
20260502051335 69 189 0.0 0.0 0.00 0.00 0.00 66 1010.0
20260502050823 69 188 0.0 0.0 0.00 0.00 0.00 66 1010.1
20260502050332 69 189 0.0 0.0 0.00 0.00 0.00 66 1010.0
20260502045819 70 189 0.0 0.0 0.00 0.00 0.00 65 1010.0
20260502045330 70 188 0.0 0.0 0.00 0.00 0.00 64 1009.9
20260502044819 70 189 0.0 0.0 0.00 0.00 0.00 64 1009.9
20260502044327 71 189 0.0 0.0 0.00 0.00 0.00 63 1009.8
20260502043836 71 189 0.0 0.0 0.00 0.00 0.00 63 1009.8
20260502043325 71 189 0.0 0.0 0.00 0.00 0.00 63 1009.7
20260502042818 72 189 0.0 0.0 0.00 0.00 0.00 62 1009.6
20260502042330 72 197 0.0 0.0 0.00 0.00 0.00 61 1009.5
20260502041819 72 196 0.0 0.0 0.00 0.00 0.00 60 1009.6
20260502041328 73 196 0.0 0.0 0.00 0.00 0.00 60 1009.5
20260502040818 73 197 0.0 0.0 0.00 0.00 0.00 58 1009.4
20260502040327 73 197 0.0 0.0 0.00 0.00 0.00 57 1009.3
20260502035818 74 196 0.0 0.0 0.00 0.00 0.00 56 1009.3
20260502035326 74 197 0.0 0.0 0.00 0.00 0.00 56 1009.3
20260502034819 74 197 0.0 0.0 0.00 0.00 0.00 55 1009.2
20260502034327 74 197 0.0 0.0 0.00 0.00 0.00 53 1009.1
20260502033819 75 196 0.0 0.0 0.00 0.00 0.00 53 1009.0
20260502033327 75 197 0.0 0.0 0.00 0.00 0.00 52 1008.9
20260502032816 75 197 0.0 0.0 0.00 0.00 0.00 52 1009.0
20260502032324 76 197 0.0 0.0 0.00 0.00 0.00 52 1008.8
20260502031832 76 196 0.0 0.0 0.00 0.00 0.00 51 1008.7
20260502031320 76 197 0.0 0.0 0.00 0.00 0.00 51 1008.7
20260502030829 77 197 0.0 0.0 0.00 0.00 0.00 52 1008.6
20260502030320 77 197 0.0 0.0 0.00 0.00 0.00 51 1008.7
20260502025829 78 196 0.0 0.0 0.00 0.00 0.00 51 1008.7
20260502025317 78 197 0.0 0.0 0.00 0.00 0.00 51 1008.6
20260502024828 78 188 0.0 0.0 0.00 0.00 0.00 51 1008.4
20260502024336 79 189 0.0 0.0 0.00 0.00 0.00 51 1008.5
20260502023825 79 189 0.0 0.0 0.00 0.00 0.00 51 1008.5
20260502023333 80 188 0.0 0.0 0.00 0.00 0.00 50 1008.4
20260502022823 80 189 0.0 0.0 0.00 0.00 0.00 50 1008.4
20260502022330 80 185 0.0 0.0 0.00 0.00 0.00 50 1008.3
20260502021825 81 185 0.0 0.0 0.00 0.00 0.00 49 1008.2
20260502021336 81 184 0.0 0.0 0.00 0.00 0.00 48 1008.3
20260502020823 82 185 0.0 0.0 0.00 0.00 0.00 48 1008.3
20260502020331 82 185 0.0 0.0 0.00 0.00 0.00 48 1008.2
20260502015823 82 186 0.0 0.0 0.00 0.00 0.00 47 1008.2
20260502015331 83 186 0.0 0.0 0.00 0.00 0.00 47 1008.3
20260502014824 83 186 0.0 0.0 0.00 0.00 0.00 47 1008.4
20260502014336 83 185 0.0 0.0 0.00 0.00 0.00 46 1008.4
20260502013826 84 184 0.0 0.0 0.00 0.00 0.00 46 1008.4
20260502013320 84 185 0.0 0.0 0.00 0.00 0.00 45 1008.5
20260502012829 84 192 0.0 0.0 0.00 0.00 0.00 45 1008.5
20260502012336 85 216 0.0 0.0 0.00 0.00 0.00 45 1008.5
20260502011825 85 205 0.0 0.0 0.00 0.00 0.00 45 1008.5
20260502011333 85 209 0.0 0.0 0.00 0.00 0.00 45 1008.6
20260502010822 85 208 0.0 0.0 0.00 0.00 0.00 44 1008.6
20260502010329 85 226 0.0 0.0 0.00 0.00 0.00 45 1008.7
20260502005820 85 215 0.0 0.0 0.00 0.00 0.00 43 1008.7
20260502005329 85 148 0.0 0.0 0.00 0.00 0.00 44 1008.6
20260502004820 85 141 0.0 0.0 0.00 0.00 0.00 45 1008.6
20260502004329 85 106 0.0 0.0 0.00 0.00 0.00 44 1008.7
20260502003819 85 211 0.0 0.0 0.00 0.00 0.00 44 1008.7
20260502003330 85 210 0.0 0.0 0.00 0.00 0.00 45 1008.7
20260502002822 85 210 0.0 0.0 0.00 0.00 0.00 44 1008.7
20260502002330 85 209 0.0 0.0 0.00 0.00 0.00 43 1008.7
20260502001819 85 203 0.0 0.0 0.00 0.00 0.00 43 1008.7
20260502001328 85 205 0.0 0.0 0.00 0.00 0.00 42 1008.6
20260502000824 86 134 0.0 0.0 0.00 0.00 0.00 41 1008.6
20260502000333 86 124 0.0 0.0 0.00 0.00 0.00 42 1008.7
20260501235822 86 111 0.0 0.0 0.00 0.00 0.00 41 1008.8
20260501235330 86 179 0.0 0.0 0.00 0.00 0.00 41 1008.8
20260501234820 86 179 0.0 0.0 0.00 0.00 0.00 40 1008.8
20260501234328 86 181 0.0 0.0 0.00 0.00 0.00 42 1008.9
20260501233836 86 180 0.0 0.0 0.00 0.00 0.00 41 1009.0
20260501233323 86 180 0.0 0.0 0.00 0.00 0.00 40 1008.9
20260501232831 86 181 0.0 0.0 0.00 0.00 0.00 42 1009.0
20260501232324 86 180 0.0 0.0 0.00 0.00 0.00 41 1009.2
20260501231833 85 181 0.0 0.0 0.00 0.00 0.00 41 1009.3
20260501231321 85 141 0.0 0.0 0.00 0.00 0.00 41 1009.4
20260501230831 85 137 0.0 0.0 0.00 0.00 0.00 41 1009.3
20260501230319 85 129 0.0 0.0 0.00 0.00 0.00 42 1009.4
20260501225828 85 121 0.0 0.0 0.00 0.00 0.00 41 1009.5
20260501225336 85 205 0.0 0.0 0.00 0.00 0.00 43 1009.7
20260501224824 85 122 0.0 0.0 0.00 0.00 0.00 43 1009.7
20260501224334 85 121 0.0 0.0 0.00 0.00 0.00 42 1009.8
20260501223827 85 119 0.0 0.0 0.00 0.00 0.00 43 1009.8
20260501223335 85 118 0.0 0.0 0.00 0.00 0.00 42 1009.9
20260501222823 85 116 0.0 0.0 0.00 0.00 0.00 42 1010.1
20260501222332 85 134 0.0 0.0 0.00 0.00 0.00 42 1010.2
20260501221821 84 133 0.0 0.0 0.00 0.00 0.00 43 1010.5
20260501221329 84 133 0.0 0.0 0.00 0.00 0.00 43 1010.5
20260501220818 84 133 0.0 0.0 0.00 0.00 0.00 45 1010.5
20260501220326 84 103 0.0 0.0 0.00 0.00 0.00 47 1010.5
20260501215836 83 112 0.0 0.0 0.00 0.00 0.00 45 1010.5
20260501215329 83 126 0.0 0.0 0.00 0.00 0.00 46 1010.6
20260501214819 83 109 0.0 0.0 0.00 0.00 0.00 44 1010.7
20260501214328 83 161 0.0 0.0 0.00 0.00 0.00 45 1010.7
20260501213818 82 179 0.0 0.0 0.00 0.00 0.00 45 1010.7
20260501213327 82 180 0.0 0.0 0.00 0.00 0.00 47 1010.7
20260501212816 82 169 0.0 0.0 0.00 0.00 0.00 47 1010.8
20260501212327 82 169 0.0 0.0 0.00 0.00 0.00 46 1010.8
20260501211817 82 162 0.0 0.0 0.00 0.00 0.00 47 1010.9
20260501211327 82 159 0.0 0.0 0.00 0.00 0.00 47 1010.9
20260501210823 81 159 0.0 0.0 0.00 0.00 0.00 46 1010.9
20260501210332 81 161 0.0 0.0 0.00 0.00 0.00 46 1010.9
20260501205821 81 161 0.0 0.0 0.00 0.00 0.00 46 1011.0
20260501205330 80 160 0.0 0.0 0.00 0.00 0.00 47 1011.0
20260501204822 80 159 0.0 0.0 0.00 0.00 0.00 48 1011.2
20260501204331 80 242 0.0 0.0 0.00 0.00 0.00 49 1011.2
20260501203823 79 133 0.0 0.0 0.00 0.00 0.00 49 1011.2
20260501203332 79 256 0.0 0.0 0.00 0.00 0.00 51 1011.2
20260501202825 79 256 0.0 0.0 0.00 0.00 0.00 51 1011.4
20260501202313 78 228 0.0 0.0 0.00 0.00 0.00 51 1011.3
20260501201825 78 253 0.0 0.0 0.00 0.00 0.00 51 1011.3
20260501201334 78 227 0.0 0.0 0.00 0.00 0.00 52 1011.4
20260501200823 77 226 0.0 0.0 0.00 0.00 0.00 52 1011.5
20260501200331 77 224 0.0 0.0 0.00 0.00 0.00 54 1011.5
20260501195821 77 220 0.0 0.0 0.00 0.00 0.00 55 1011.4
20260501195330 76 206 0.0 0.0 0.00 0.00 0.00 54 1011.5
20260501194819 76 266 0.0 0.0 0.00 0.00 0.00 55 1011.6
20260501194331 76 241 0.0 0.0 0.00 0.00 0.00 56 1011.7
20260501193822 76 123 0.0 0.0 0.00 0.00 0.00 54 1011.7
20260501193330 76 246 0.0 0.0 0.00 0.00 0.00 55 1011.8
20260501192818 76 268 0.0 0.0 0.00 0.00 0.00 56 1011.9
20260501192325 75 273 0.0 0.0 0.00 0.00 0.00 57 1011.9
20260501191834 75 248 0.0 0.0 0.00 0.00 0.00 57 1012.0
20260501191322 75 192 0.0 0.0 0.00 0.00 0.00 55 1012.1
20260501190829 75 180 0.0 0.0 0.00 0.00 0.00 55 1012.1
20260501190317 75 215 0.0 0.0 0.00 0.00 0.00 55 1012.2
20260501185830 75 171 0.0 0.0 0.00 0.00 0.00 57 1012.3
20260501185319 74 161 0.0 0.0 0.00 0.00 0.00 57 1012.3
20260501184827 74 135 0.0 0.0 0.00 0.00 0.00 56 1012.3
20260501184334 74 118 0.0 0.0 0.00 0.00 0.00 58 1012.4
20260501183823 74 244 0.0 0.0 0.00 0.00 0.00 59 1012.4
20260501183331 74 277 0.0 0.0 0.00 0.00 0.00 57 1012.4
20260501182820 74 213 0.0 0.0 0.00 0.00 0.00 57 1012.5
20260501182328 73 235 0.0 0.0 0.00 0.00 0.00 57 1012.6
20260501181820 73 195 0.0 0.0 0.00 0.00 0.00 57 1012.5
20260501181333 73 164 0.0 0.0 0.00 0.00 0.00 57 1012.5
20260501180822 73 121 0.0 0.0 0.00 0.00 0.00 57 1012.5
20260501180331 73 117 0.0 0.0 0.00 0.00 0.00 59 1012.5
20260501175820 72 117 0.0 0.0 0.00 0.00 0.00 58 1012.5
20260501175329 72 122 0.0 0.0 0.00 0.00 0.00 59 1012.5
20260501174819 71 121 0.0 0.0 0.00 0.00 0.00 60 1012.4
20260501174326 71 121 0.0 0.0 0.00 0.00 0.00 61 1012.4
20260501173815 71 121 0.0 0.0 0.00 0.00 0.00 60 1012.3
20260501173326 70 121 0.0 0.0 0.00 0.00 0.00 61 1012.3
20260501172819 70 115 0.0 0.0 0.00 0.00 0.00 61 1012.5
20260501172327 69 113 0.0 0.0 0.00 0.00 0.00 62 1012.5
20260501171817 69 119 0.0 0.0 0.00 0.00 0.00 62 1012.5
20260501171325 69 119 0.0 0.0 0.00 0.00 0.00 62 1012.5